EDT,Max TemperatureF,Mean TemperatureF,Min TemperatureF,Max Dew PointF,MeanDew PointF,Min DewpointF,Max Humidity, Mean Humidity, Min Humidity, Max Sea Level PressureIn, Mean Sea Level PressureIn, Min Sea Level PressureIn, Max VisibilityMiles, Mean VisibilityMiles, Min VisibilityMiles, Max Wind SpeedMPH, Mean Wind SpeedMPH, Max Gust SpeedMPH,PrecipitationIn, CloudCover, Events, WindDirDegrees
2012-9-1,78,64,53,63,55,45,94,74,33,30.14,30.00,29.85,10,7,0,7,1,,0.00,0,Fog,220
2012-9-2,64,57,50,59,53,47,94,87,72,30.20,30.16,30.13,10,9,2,6,1,,0.10,5,Rain,153
2012-9-3,72,61,51,59,55,48,100,83,59,30.25,30.21,30.17,10,9,0,13,1,,0.00,5,Fog,200
2012-9-4,71,62,53,61,59,51,94,88,68,30.17,30.07,29.92,10,7,1,10,3,16,0.13,6,Rain,157
2012-9-5,73,67,59,70,63,57,100,87,71,29.88,29.77,29.66,10,7,1,13,2,24,0.55,7,Rain,200
2012-9-6,73,64,55,62,58,53,94,82,68,29.92,29.88,29.86,10,10,10,7,1,,0.01,3,,157
2012-9-7,82,70,60,66,63,59,100,85,56,29.93,29.89,29.85,10,5,0,8,1,,0.00,3,Fog,176
2012-9-8,75,68,62,70,66,59,97,87,73,29.92,29.81,29.64,10,6,0,12,4,25,0.17,8,Fog-Rain,194
2012-9-9,70,61,53,64,56,51,94,81,54,29.86,29.78,29.65,10,10,10,6,2,,0.03,2,,227
2012-9-10,69,56,48,50,47,43,90,70,50,30.00,29.91,29.86,10,10,10,7,2,,0.03,3,,302
2012-9-11,72,57,43,51,44,40,90,67,35,30.25,30.15,30.01,10,10,10,8,2,,0.00,0,,255
2012-9-12,73,58,44,54,47,42,93,72,35,30.35,30.32,30.26,10,10,10,9,1,,0.00,0,,215
2012-9-13,75,60,46,61,51,45,100,85,56,30.35,30.31,30.25,10,7,0,8,1,,0.00,4,Fog,173
2012-9-14,75,63,51,63,56,50,100,89,57,30.25,30.20,30.07,10,5,0,8,0,,0.00,4,Fog,188
2012-9-15,73,62,46,61,54,43,94,74,39,30.05,29.99,29.94,10,10,9,9,3,20,0.01,4,,249
2012-9-16,66,54,42,43,38,34,90,61,30,30.06,30.01,29.96,10,10,10,9,2,17,0.00,0,,307
2012-9-17,68,52,35,50,42,33,93,72,35,30.11,30.07,30.04,10,10,10,8,1,,0.00,0,,177
2012-9-18,70,58,46,63,54,45,93,83,63,30.07,29.98,29.78,10,10,6,14,3,25,0.21,5,Rain,171
2012-9-19,70,60,45,65,56,39,94,76,36,30.25,29.88,29.70,10,8,2,16,9,28,0.84,5,Rain,202
2012-9-20,64,52,39,46,39,35,93,70,34,30.31,30.25,30.19,10,10,10,6,1,,0.00,0,,85
2012-9-21,61,50,39,52,48,37,94,84,72,30.20,30.15,30.09,10,10,10,5,1,,0.03,3,,100
2012-9-22,68,60,53,62,56,52,94,90,81,30.09,29.96,29.86,10,6,1,8,1,,0.10,8,Rain,201
2012-9-23,70,58,45,61,53,41,94,75,36,30.06,29.89,29.79,10,10,4,8,2,,0.01,4,Rain,219
2012-9-24,64,52,41,48,41,38,93,76,40,30.13,30.09,30.06,10,9,2,6,1,,0.03,3,,202
2012-9-25,66,52,37,51,43,35,93,73,41,30.14,30.11,30.09,10,10,10,13,2,24,0.00,0,,226
2012-9-26,64,58,52,59,57,49,90,82,75,30.12,30.04,29.98,10,10,10,10,5,21,0.00,5,,209
2012-9-27,64,54,43,57,45,38,93,66,39,30.28,30.14,29.98,10,10,6,8,2,16,0.01,2,,330
2012-9-28,57,47,37,51,44,34,94,86,69,30.28,30.22,30.13,10,9,5,6,1,,0.46,5,Rain,87
2012-9-29,55,52,48,52,49,46,94,92,86,30.11,29.98,29.88,10,6,2,7,3,,0.25,8,Rain,45
2012-9-30,59,56,53,57,54,52,100,93,88,29.92,29.79,29.64,10,5,0,10,1,16,0.73,8,Fog-Rain,220